DW7251 Weather Reports


Display with metric or nautical units.
time (UTC)temp
F
wind
direction
speed
MPH
gust
MPH
rain 1hr
in
rain 24hr
in
rain mn
in
humidity
%
barometer
mb
20200401060752 72 131 2.0 8.0 0.00 0.00 0.00 63 1013.9
20200401060254 72 175 3.0 8.0 0.00 0.00 0.00 63 1013.9
20200401055757 71 233 3.0 8.0 0.00 0.00 0.00 64 1013.9
20200401055250 71 134 2.0 8.0 0.00 0.00 0.00 65 1013.9
20200401054749 71 151 2.0 8.0 0.00 0.00 0.00 68 1013.9
20200401054240 70 122 2.0 8.0 0.00 0.00 0.00 72 1014.0
20200401053746 70 218 3.0 8.0 0.00 0.00 0.00 72 1014.0
20200401053237 70 204 3.0 8.0 0.00 0.00 0.00 72 1014.1
20200401052721 71 221 3.0 6.0 0.00 0.00 0.00 72 1014.1
20200401052209 70 157 3.0 6.0 0.00 0.00 0.00 72 1014.0
20200401051652 70 172 3.0 5.0 0.00 0.00 0.00 73 1014.1
20200401051133 70 176 2.0 8.0 0.00 0.00 0.00 72 1014.2
20200401050626 71 204 2.0 8.0 0.00 0.00 0.00 71 1014.2
20200401050134 71 180 3.0 8.0 0.00 0.00 0.00 71 1014.2
20200401045609 71 194 3.0 8.0 0.00 0.00 0.00 71 1014.1
20200401045058 70 211 3.0 6.0 0.00 0.00 0.00 70 1014.1
20200401044602 70 152 3.0 6.0 0.00 0.00 0.00 70 1014.2
20200401044051 70 197 3.0 7.0 0.00 0.00 0.00 70 1014.3
20200401043551 70 180 3.0 7.0 0.00 0.00 0.00 70 1014.2
20200401043100 70 217 3.0 9.0 0.00 0.00 0.00 69 1014.3
20200401042550 70 208 4.0 9.0 0.00 0.00 0.00 71 1014.3
20200401042100 71 156 4.0 9.0 0.00 0.00 0.00 70 1014.4
20200401041552 70 228 4.0 9.0 0.00 0.00 0.00 71 1014.1
20200401041041 70 180 4.0 9.0 0.00 0.00 0.00 73 1014.3
20200401040529 70 209 4.0 9.0 0.00 0.00 0.00 73 1014.3
20200401040030 71 199 5.0 9.0 0.00 0.00 0.00 71 1014.0
20200401035515 71 228 6.0 9.0 0.00 0.00 0.00 71 1014.0
20200401034957 71 195 5.0 9.0 0.00 0.00 0.00 71 1014.2
20200401034441 70 207 4.0 9.0 0.00 0.00 0.00 70 1014.4
20200401033938 70 199 4.0 9.0 0.00 0.00 0.00 70 1014.4
20200401033432 70 217 5.0 9.0 0.00 0.00 0.00 69 1014.5
20200401032918 70 203 4.0 9.0 0.00 0.00 0.00 68 1014.6
20200401032401 70 185 4.0 9.0 0.00 0.00 0.00 70 1014.7
20200401031848 70 215 5.0 9.0 0.00 0.00 0.00 69 1014.8
20200401031340 69 217 5.0 9.0 0.00 0.00 0.00 68 1014.9
20200401030837 69 209 5.0 9.0 0.00 0.00 0.00 72 1015.3
20200401030319 69 214 4.0 9.0 0.00 0.00 0.00 73 1015.5
20200401025816 69 204 5.0 10.0 0.00 0.00 0.00 72 1015.6
20200401025321 68 262 6.0 10.0 0.00 0.00 0.00 70 1015.7
20200401024803 68 166 6.0 10.0 0.00 0.00 0.00 71 1015.9
20200401024250 68 217 6.0 10.0 0.00 0.00 0.00 72 1015.8
20200401023738 68 168 5.0 9.0 0.00 0.00 0.00 72 1015.7
20200401023228 68 203 5.0 10.0 0.00 0.00 0.00 71 1015.6
20200401022717 68 226 5.0 10.0 0.00 0.00 0.00 70 1015.7
20200401022159 68 204 5.0 10.0 0.00 0.00 0.00 69 1015.8
20200401021643 67 208 5.0 10.0 0.00 0.00 0.00 69 1015.8
20200401021142 67 197 4.0 8.0 0.00 0.00 0.00 70 1015.9
20200401020632 67 206 4.0 9.0 0.00 0.00 0.00 72 1016.0
20200401020120 67 207 5.0 9.0 0.00 0.00 0.00 74 1016.0
20200401015600 66 202 5.0 10.0 0.00 0.00 0.00 74 1016.1
20200401015052 66 165 6.0 10.0 0.00 0.00 0.00 74 1016.2
20200401014532 66 192 6.0 10.0 0.00 0.00 0.00 74 1016.3
20200401014035 65 228 5.0 10.0 0.00 0.00 0.00 74 1016.5
20200401013534 65 204 5.0 8.0 0.00 0.00 0.00 74 1016.6
20200401013021 65 183 5.0 8.0 0.00 0.00 0.00 74 1016.6
20200401012520 65 189 4.0 8.0 0.00 0.00 0.00 73 1016.7
20200401012001 65 216 3.0 8.0 0.00 0.00 0.00 73 1016.9
20200401011457 65 225 4.0 7.0 0.00 0.00 0.00 75 1016.9
20200401011001 65 195 4.0 7.0 0.00 0.00 0.00 74 1016.9
20200401010456 65 210 4.0 7.0 0.00 0.00 0.00 74 1016.9
20200401005942 65 205 3.0 7.0 0.00 0.00 0.00 73 1017.0
20200401005436 65 199 3.0 7.0 0.00 0.00 0.00 74 1017.1
20200401004917 65 183 3.0 7.0 0.00 0.00 0.00 73 1017.0
20200401004411 65 207 2.0 5.0 0.00 0.00 0.00 72 1017.1
20200401003920 65 234 2.0 4.0 0.00 0.00 0.00 73 1017.2
20200401003425 65 199 1.0 4.0 0.00 0.00 0.00 71 1017.3
20200401002920 65 195 0.0 3.0 0.00 0.00 0.00 73 1017.4
20200401002408 65 261 0.0 3.0 0.00 0.00 0.00 73 1017.3
20200401001917 65 162 1.0 2.0 0.00 0.00 0.00 74 1017.4
20200401001358 65 245 0.0 2.0 0.00 0.00 0.00 74 1017.5
20200401000853 65 296 0.0 2.0 0.00 0.00 0.00 74 1017.5
20200401000400 64 261 0.0 3.0 0.00 0.00 0.00 74 1017.5
20200331235845 64 163 0.0 3.0 0.00 0.00 0.00 75 1017.5
20200331235326 64 318 0.0 3.0 0.00 0.00 0.00 73 1017.6
20200331234827 64 274 0.0 3.0 0.00 0.00 0.00 73 1017.6
20200331234318 64 209 0.0 2.0 0.00 0.00 0.00 73 1017.7
20200331233806 64 224 0.0 2.0 0.00 0.00 0.00 72 1017.7
20200331233250 64 299 0.0 0.0 0.00 0.00 0.00 72 1017.8
20200331232800 64 64 0.0 3.0 0.00 0.00 0.00 72 1017.9
20200331232307 63 171 0.0 3.0 0.00 0.00 0.00 74 1017.9
20200331231813 62 27 1.0 3.0 0.00 0.00 0.00 74 1017.9
20200331231256 62 5 1.0 3.0 0.00 0.00 0.00 75 1017.9
20200331230803 62 29 1.0 2.0 0.00 0.00 0.00 75 1017.9
20200331230320 62 78 0.0 4.0 0.00 0.00 0.00 75 1017.9
20200331225742 61 11 1.0 4.0 0.00 0.00 0.00 77 1017.9
20200331225248 61 72 1.0 4.0 0.00 0.00 0.00 77 1018.0
20200331224743 60 41 1.0 4.0 0.00 0.00 0.00 77 1018.0
20200331224237 60 60 2.0 4.0 0.00 0.00 0.00 79 1018.0
20200331223725 59 22 1.0 4.0 0.00 0.00 0.00 79 1018.0
20200331223208 59 21 1.0 4.0 0.00 0.00 0.00 80 1017.9
20200331222656 58 34 1.0 4.0 0.00 0.00 0.00 80 1017.8
20200331222138 58 25 1.0 4.0 0.00 0.00 0.00 82 1018.0
20200331221644 57 15 1.0 3.0 0.00 0.00 0.00 82 1018.3
20200331221146 57 21 1.0 3.0 0.00 0.00 0.00 83 1018.4
20200331220653 57 51 0.0 2.0 0.00 0.00 0.00 84 1018.4
20200331220139 57 69 0.0 2.0 0.00 0.00 0.00 85 1018.5
20200331215624 56 36 0.0 2.0 0.00 0.00 0.00 85 1018.7
20200331215107 56 62 0.0 2.0 0.00 0.00 0.00 86 1018.8
20200331214612 56 20 0.0 1.0 0.00 0.00 0.00 87 1018.8
20200331214108 55 38 0.0 1.0 0.00 0.00 0.00 88 1018.8
20200331213551 55 63 0.0 1.0 0.00 0.00 0.00 88 1018.7
20200331213037 54 60 0.0 1.0 0.00 0.00 0.00 88 1018.6
20200331212523 54 54 0.0 0.0 0.00 0.00 0.00 89 1018.6
20200331212012 54 54 0.0 0.0 0.00 0.00 0.00 89 1018.6
20200331211511 54 27 0.0 0.0 0.00 0.00 0.00 91 1018.6
20200331211007 53 59 0.0 0.0 0.00 0.00 0.00 90 1018.4
20200331210516 53 55 0.0 2.0 0.00 0.00 0.00 90 1018.4
20200331210005 53 70 1.0 2.0 0.00 0.00 0.00 90 1018.2
20200331205454 52 55 0.0 1.0 0.00 0.00 0.00 91 1018.2
20200331204949 52 64 0.0 1.0 0.00 0.00 0.00 91 1018.2
20200331204437 52 67 0.0 1.0 0.00 0.00 0.00 91 1018.2
20200331203931 52 59 0.0 1.0 0.00 0.00 0.00 91 1018.3
20200331203421 52 57 0.0 1.0 0.00 0.00 0.00 91 1018.4
20200331202906 52 49 0.0 0.0 0.00 0.00 0.00 91 1018.4
20200331202413 52 41 0.0 0.0 0.00 0.00 0.00 91 1018.3
20200331201854 52 47 0.0 0.0 0.00 0.00 0.00 90 1018.0
20200331201344 52 50 0.0 0.0 0.00 0.00 0.00 90 1018.0
20200331200835 52 48 0.0 0.0 0.00 0.00 0.00 90 1017.9
20200331200315 52 43 0.0 0.0 0.00 0.00 0.00 90 1017.9
20200331195803 52 63 0.0 0.0 0.00 0.00 0.00 90 1017.7
20200331195259 52 22 0.0 0.0 0.00 0.00 0.00 90 1017.8
20200331194749 52 45 0.0 0.0 0.00 0.00 0.00 90 1017.8
20200331194242 52 45 0.0 0.0 0.00 0.00 0.00 89 1017.7
20200331193736 52 45 0.0 0.0 0.00 0.00 0.00 89 1017.5
20200331193231 52 45 0.0 0.0 0.00 0.00 0.00 89 1017.5
20200331192738 52 45 0.0 0.0 0.00 0.00 0.00 89 1017.4
20200331192221 53 45 0.0 0.0 0.00 0.00 0.00 89 1017.3
20200331191709 53 45 0.0 1.0 0.00 0.00 0.00 89 1017.1
20200331191159 53 67 0.0 1.0 0.00 0.00 0.00 89 1017.0
20200331190706 53 43 0.0 1.0 0.00 0.00 0.00 89 1017.0
20200331190151 53 53 0.0 1.0 0.00 0.00 0.00 88 1016.9
20200331185654 53 34 0.0 1.0 0.00 0.00 0.00 88 1017.0
20200331185140 53 46 0.0 1.0 0.00 0.00 0.00 88 1016.8
20200331184629 53 24 0.0 2.0 0.00 0.00 0.00 88 1017.0
20200331184138 54 33 0.0 2.0 0.00 0.00 0.00 88 1016.9
20200331183627 54 51 0.0 2.0 0.00 0.00 0.00 88 1016.7
20200331183127 54 74 0.0 2.0 0.00 0.00 0.00 87 1016.7
20200331182634 54 43 0.0 2.0 0.00 0.00 0.00 87 1016.7
20200331182140 54 56 1.0 2.0 0.00 0.00 0.00 87 1016.8
20200331181625 54 57 1.0 2.0 0.00 0.00 0.00 87 1016.8
20200331181134 54 51 1.0 2.0 0.00 0.00 0.00 87 1016.8
20200331180616 54 53 1.0 2.0 0.00 0.00 0.00 87 1016.9
20200331180119 54 60 0.0 2.0 0.00 0.00 0.00 87 1016.8
20200331175623 54 53 0.0 2.0 0.00 0.00 0.00 87 1016.8
20200331175110 54 42 1.0 2.0 0.00 0.00 0.00 87 1016.7
20200331174603 54 44 0.0 1.0 0.00 0.00 0.00 87 1016.8
20200331174055 54 48 0.0 1.0 0.00 0.00 0.00 87 1016.9
20200331173550 54 47 0.0 1.0 0.00 0.00 0.00 87 1016.8
20200331173043 54 59 0.0 2.0 0.00 0.00 0.00 87 1016.9
20200331172541 54 68 0.0 2.0 0.00 0.00 0.00 86 1016.9
20200331172029 54 57 0.0 2.0 0.00 0.00 0.00 87 1016.9
20200331171535 54 35 0.0 2.0 0.00 0.00 0.00 87 1017.0
20200331171016 54 45 0.0 1.0 0.00 0.00 0.00 87 1017.0
20200331170515 54 50 0.0 1.0 0.00 0.00 0.00 86 1017.0
20200331170006 54 55 0.0 1.0 0.00 0.00 0.00 86 1017.0
20200331165504 54 65 0.0 1.0 0.00 0.00 0.00 86 1017.1
20200331164951 54 55 0.0 0.0 0.00 0.00 0.00 86 1017.0
20200331164447 55 56 0.0 0.0 0.00 0.00 0.00 86 1017.0
20200331163951 54 36 0.0 0.0 0.00 0.00 0.00 86 1017.0
20200331163447 54 56 0.0 0.0 0.00 0.00 0.00 86 1017.1
20200331162933 55 57 0.0 0.0 0.00 0.00 0.00 86 1017.1
20200331162420 55 53 0.0 0.0 0.00 0.00 0.00 86 1017.1
20200331161910 55 63 0.0 0.0 0.00 0.00 0.00 86 1017.2
20200331161403 55 50 0.0 0.0 0.00 0.00 0.00 85 1017.3
20200331160902 55 69 0.0 0.0 0.00 0.00 0.00 85 1017.4
20200331160359 55 38 0.0 0.0 0.00 0.00 0.00 85 1017.4
20200331155847 55 37 0.0 0.0 0.00 0.00 0.00 85 1017.3
20200331155346 55 29 0.0 0.0 0.00 0.00 0.00 84 1017.5
20200331154835 55 29 0.0 0.0 0.00 0.00 0.00 84 1017.5
20200331154330 55 29 0.0 0.0 0.00 0.00 0.00 84 1017.4
20200331153829 56 29 0.0 0.0 0.00 0.00 0.00 84 1017.5
20200331153324 56 29 0.0 0.0 0.00 0.00 0.00 83 1017.5
20200331152812 56 29 0.0 0.0 0.00 0.00 0.00 83 1017.6
20200331152314 56 56 0.0 2.0 0.00 0.00 0.00 83 1017.5
20200331151802 56 31 0.0 2.0 0.00 0.00 0.00 83 1017.5
20200331151248 56 39 0.0 2.0 0.00 0.00 0.00 84 1017.4
20200331150741 56 43 0.0 1.0 0.00 0.00 0.00 84 1017.5
20200331150231 56 45 0.0 1.0 0.00 0.00 0.00 84 1017.5
20200331145734 55 47 0.0 1.0 0.00 0.00 0.00 84 1017.5
20200331145226 55 52 0.0 0.0 0.00 0.00 0.00 83 1017.5
20200331144730 56 50 0.0 0.0 0.00 0.00 0.00 83 1017.5
20200331144218 56 31 0.0 0.0 0.00 0.00 0.00 82 1017.5
20200331143659 56 31 0.0 0.0 0.00 0.00 0.00 81 1017.5
20200331143152 56 30 0.0 0.0 0.00 0.00 0.00 80 1017.5
20200331142638 57 31 0.0 0.0 0.00 0.00 0.00 80 1017.6
20200331142142 57 31 0.0 0.0 0.00 0.00 0.00 80 1017.7
20200331141622 57 30 0.0 0.0 0.00 0.00 0.00 79 1017.8
20200331141107 57 30 0.0 0.0 0.00 0.00 0.00 79 1017.9
20200331140558 58 30 0.0 0.0 0.00 0.00 0.00 78 1017.9
20200331140040 58 31 0.0 0.0 0.00 0.00 0.00 78 1018.0
20200331135533 58 28 0.0 2.0 0.00 0.00 0.00 77 1018.0
20200331135020 58 43 0.0 2.0 0.00 0.00 0.00 77 1018.0
20200331134517 59 26 0.0 2.0 0.00 0.00 0.00 77 1018.0
20200331134026 59 42 0.0 2.0 0.00 0.00 0.00 77 1018.0
20200331133529 59 68 0.0 2.0 0.00 0.00 0.00 76 1017.9
20200331133016 59 50 0.0 2.0 0.00 0.00 0.00 76 1017.9
20200331132523 59 72 0.0 2.0 0.00 0.00 0.00 76 1017.8
20200331132012 59 64 0.0 2.0 0.00 0.00 0.00 76 1017.8
20200331131458 59 69 0.0 2.0 0.00 0.00 0.00 76 1017.9
20200331131004 59 54 0.0 2.0 0.00 0.00 0.00 76 1017.9
20200331130447 59 74 0.0 1.0 0.00 0.00 0.00 76 1017.9
20200331125949 59 62 0.0 0.0 0.00 0.00 0.00 76 1017.9
20200331125447 59 65 0.0 3.0 0.00 0.00 0.00 76 1017.9
20200331124951 60 67 0.0 3.0 0.00 0.00 0.00 75 1017.9
20200331124443 60 48 0.0 3.0 0.00 0.00 0.00 76 1018.0
20200331123927 60 47 0.0 1.0 0.00 0.00 0.00 76 1018.0
20200331123418 60 50 0.0 1.0 0.00 0.00 0.00 76 1018.0
20200331122908 60 69 0.0 1.0 0.00 0.00 0.00 76 1018.0
20200331122408 60 50 0.0 0.0 0.00 0.00 0.00 75 1018.0
20200331121849 60 48 0.0 2.0 0.00 0.00 0.00 75 1018.0
20200331121348 60 75 0.0 2.0 0.00 0.00 0.00 75 1018.0
20200331120843 60 48 0.0 2.0 0.00 0.00 0.00 75 1018.1
20200331120353 60 38 0.0 2.0 0.00 0.00 0.00 74 1018.1
20200331115833 60 61 0.0 2.0 0.00 0.00 0.00 74 1018.1
20200331115331 61 62 1.0 2.0 0.00 0.00 0.00 74 1018.1
20200331114826 61 81 1.0 2.0 0.00 0.00 0.00 74 1017.9
20200331114320 61 56 1.0 2.0 0.00 0.00 0.00 74 1017.9
20200331113813 61 51 0.0 2.0 0.00 0.00 0.00 74 1018.0
20200331113307 61 72 0.0 1.0 0.00 0.00 0.00 73 1018.0
20200331112815 61 56 0.0 1.0 0.00 0.00 0.00 73 1017.9
20200331112427 61 67 0.0 3.0 0.00 0.00 0.00 73 1017.8
20200331111908 61 70 0.0 3.0 0.00 0.00 0.00 73 1017.8
20200331111411 61 52 0.0 3.0 0.00 0.00 0.00 72 1017.8
20200331110902 61 64 0.0 3.0 0.00 0.00 0.00 72 1017.7
20200331110346 61 78 0.0 2.0 0.00 0.00 0.00 72 1017.7
20200331105833 61 64 0.0 1.0 0.00 0.00 0.00 72 1017.8
20200331105321 61 50 0.0 1.0 0.00 0.00 0.00 72 1017.7
20200331104822 61 69 0.0 1.0 0.00 0.00 0.00 72 1017.7
20200331104321 61 57 0.0 0.0 0.00 0.00 0.00 72 1017.7
20200331103805 61 58 0.0 0.0 0.00 0.00 0.00 72 1017.6
20200331103245 61 55 0.0 0.0 0.00 0.00 0.00 72 1017.6
20200331102726 61 55 0.0 0.0 0.00 0.00 0.00 72 1017.6
20200331102212 61 59 0.0 0.0 0.00 0.00 0.00 72 1017.5
20200331101713 61 59 0.0 0.0 0.00 0.00 0.00 72 1017.5
20200331101202 61 59 0.0 0.0 0.00 0.00 0.00 72 1017.4
20200331100708 61 59 0.0 0.0 0.00 0.00 0.00 71 1017.4
20200331100153 61 59 0.0 0.0 0.00 0.00 0.00 71 1017.4
20200331095652 61 59 0.0 0.0 0.00 0.00 0.00 71 1017.4
20200331095151 61 59 0.0 0.0 0.00 0.00 0.00 71 1017.3
20200331094636 61 84 0.0 0.0 0.00 0.00 0.00 71 1017.3
20200331094142 61 84 0.0 0.0 0.00 0.00 0.00 71 1017.3
20200331093634 62 84 0.0 0.0 0.00 0.00 0.00 70 1017.3
20200331093119 62 84 0.0 0.0 0.00 0.00 0.00 69 1017.2
20200331092617 62 84 0.0 0.0 0.00 0.00 0.00 69 1017.2
20200331092126 63 84 0.0 0.0 0.00 0.00 0.00 68 1017.3
20200331091122 63 84 0.0 0.0 0.00 0.00 0.00 67 1017.1
20200331090618 64 84 0.0 0.0 0.00 0.00 0.00 66 1017.0
20200331090113 64 84 0.0 0.0 0.00 0.00 0.00 65 1017.0
20200331085613 65 84 0.0 0.0 0.00 0.00 0.00 64 1016.8
20200331085103 65 84 0.0 0.0 0.00 0.00 0.00 64 1016.8
20200331084546 65 85 0.0 2.0 0.00 0.00 0.00 63 1016.7
20200331084052 65 92 0.0 0.0 0.00 0.00 0.00 63 1016.6
20200331083557 65 101 0.0 0.0 0.00 0.00 0.00 63 1016.6
20200331083056 66 106 0.0 0.0 0.00 0.00 0.00 62 1016.5
20200331082605 66 90 0.0 0.0 0.00 0.00 0.00 62 1016.4
20200331082052 66 166 0.0 1.0 0.00 0.00 0.00 61 1016.3
20200331081551 67 63 0.0 0.0 0.00 0.00 0.00 60 1016.4
20200331081042 67 62 0.0 0.0 0.00 0.00 0.00 60 1016.4
20200331080547 67 209 0.0 2.0 0.00 0.00 0.00 59 1016.4
20200331080028 68 106 0.0 2.0 0.00 0.00 0.00 58 1016.4
20200331075512 68 90 0.0 3.0 0.00 0.00 0.00 58 1016.3
20200331075000 68 114 1.0 3.0 0.00 0.00 0.00 57 1016.3
20200331074501 69 70 0.0 3.0 0.00 0.00 0.00 57 1016.3
20200331073948 69 62 0.0 3.0 0.00 0.00 0.00 57 1016.4
20200331073450 69 175 0.0 4.0 0.00 0.00 0.00 60 1016.4
20200331072941 69 176 1.0 4.0 0.00 0.00 0.00 58 1016.4
20200331072446 69 164 2.0 5.0 0.00 0.00 0.00 57 1016.4
20200331071947 69 166 2.0 5.0 0.00 0.00 0.00 57 1016.3
20200331071456 69 214 1.0 5.0 0.00 0.00 0.00 56 1016.3
20200331070937 69 169 2.0 5.0 0.00 0.00 0.00 57 1016.3
20200331070443 69 218 3.0 5.0 0.00 0.00 0.00 59 1016.3
20200331065933 70 196 2.0 5.0 0.00 0.00 0.00 58 1016.2
20200331065428 70 200 2.0 4.0 0.00 0.00 0.00 56 1016.2
20200331064929 70 194 2.0 5.0 0.00 0.00 0.00 56 1016.2
20200331064412 70 216 3.0 5.0 0.00 0.00 0.00 56 1016.2
20200331063904 70 213 2.0 5.0 0.00 0.00 0.00 56 1016.1
20200331063346 70 196 1.0 5.0 0.00 0.00 0.00 56 1016.1
20200331062855 70 209 1.0 5.0 0.00 0.00 0.00 55 1016.0
20200331062346 70 134 1.0 5.0 0.00 0.00 0.00 56 1016.0
20200331061833 69 107 2.0 5.0 0.00 0.00 0.00 56 1016.1
20200331061314 69 213 3.0 5.0 0.00 0.00 0.00 56 1016.1